Showing default

NUSAT-26 (M SOMERVILLE), 52184

Orbit data source: Space-Track

NUSAT-26 (M SOMERVILLE), 52184 is a payload satellite owned by URUGUS S.A. (AR) in SSO that was launched on Fri, 01 Apr 2022 UTC via an FALCON 9 launch vehicle from the Air Force Eastern Test Range (AFETR). Payload-class satellites include a variety of spacecraft equipped with specific instruments for various scientific and technological missions. These include communications satellites like Starlink; space stations such as the ISS; scientific satellites like the Hubble; Earth observation satellites from companies like Planet Labs, Umbra, and HawkEye 360; GPS; miniature CubeSats for education and research; and military/defense satellites.

Loading next visibility...
Identifier
52184, 2022-033AD
Orbit
SSO
Country
Flag of ARAR / ARGN
Related business
Manufacturer
URUGUS S.A.
Mission
Operational Commercial Imaging
Bus & Motor
NEWSAT IV, Unknown motor
Mass
41.5 kg wet, 38.5 kg dry
Launch date (UTC)
2022-04-01 (4 years ago)
Launch vehicle
FALCON 9
Launch site
Air Force Eastern Test Range (AFETR)
Object type
Payload
Rocket body
Debris
Shape & HBR
Box, 1.0 m
Radar Cross Section
0.542 m², Medium (>0.1 m² and < 1m²)

Expand to show TLE details & history
Last TLE update: 10 hours ago

TLE from 10 hours ago
0 NUSAT-26 (M SOMERVILLE)
1 52184U 22033AD  26125.78771720  .00011427  00000-0  28087-3 0  9998
2 52184  97.2349 205.2461 0006542  51.4230 308.7602 15.40783689 98170
Epoch: 2026-05-05T18:54Z
TLE epoch observation values (Epoch: 2026-05-05T18:54:18.766Z)
Latitude
Longitude
58.01036°
Altitude
444.126 km
Speed
7.647 km/s
True Right ascension
13h 40m 59s
True Declination
0° 00' 00"
Sunlit
Object was in full shadow at epoch
Visualization orbit readout
Latitude
Unknown
Longitude
Unknown
Altitude
Unknown
Speed
Unknown
Apparent Right ascension
Unknown
Apparent Declination
Unknown
Sunlit
N/A
Visualization observer readout
Local Sidereal Time
12:36:37
Azimuth
Unknown
Elevation
Unknown
Doppler factor
Unknown
Orbital elements
Apogee altitude
445.187 km
Perigee altitude
436.265 km
Semi-major axis
6,818.863 km
Eccentricity
0.00065
Inclination
97.2349°
RAAN
205.2461°
Arg. of periapsis
51.423°
True anomaly
308.70171°
Mean anomaly
308.7602°
Eccentric anomaly
308.73096°
Mean motion
3.85456 °/min
Orbital period
93.4 mins
BSTAR
0.00028087
Loading maneuver chart data...
Computing Atmospheric mass density...
Loading historical data...
Loading historical data...
Loading historical data...
Loading historical data...
Loading historical data...
Loading historical data...
Loading historical data...

Documentation

Showing up to 5 results
|